TimeCDT,TemperatureF,Dew PointF,Humidity,Sea Level PressureIn,VisibilityMPH,Wind Direction,Wind SpeedMPH,Gust SpeedMPH,PrecipitationIn,Events,Conditions,WindDirDegrees,DateUTC
12:15 AM,51.8,44.6,76,30.17,10.0,NE,10.4,-,N/A,,Clear,40,2012-09-27 05:15:00
12:35 AM,50.5,44.6,80,30.17,10.0,NE,9.2,-,N/A,,Clear,40,2012-09-27 05:35:00
12:55 AM,50.4,43.9,78,30.16,10.0,NE,9.2,-,N/A,,Scattered Clouds,40,2012-09-27 05:55:00
1:15 AM,50.5,43.7,77,30.17,10.0,NE,10.4,-,N/A,,Scattered Clouds,50,2012-09-27 06:15:00
1:35 AM,50.9,43.3,75,30.17,10.0,ENE,8.1,-,N/A,,Clear,60,2012-09-27 06:35:00
1:55 AM,50.0,43.0,77,30.17,10.0,NE,9.2,-,N/A,,Scattered Clouds,50,2012-09-27 06:55:00
2:15 AM,49.5,42.8,78,30.16,10.0,NE,9.2,-,N/A,,Scattered Clouds,40,2012-09-27 07:15:00
2:35 AM,48.9,42.8,79,30.17,10.0,NE,8.1,-,N/A,,Clear,50,2012-09-27 07:35:00
2:55 AM,49.1,42.8,79,30.17,10.0,ENE,5.8,-,N/A,,Scattered Clouds,60,2012-09-27 07:55:00
3:15 AM,48.9,42.8,79,30.17,10.0,NE,6.9,-,N/A,,Mostly Cloudy,50,2012-09-27 08:15:00
3:35 AM,49.3,42.8,78,30.18,10.0,NE,6.9,-,N/A,,Overcast,40,2012-09-27 08:35:00
3:55 AM,49.3,42.8,78,30.18,10.0,NE,8.1,-,N/A,,Overcast,40,2012-09-27 08:55:00
4:15 AM,49.5,42.4,77,30.18,10.0,NE,8.1,-,N/A,,Mostly Cloudy,40,2012-09-27 09:15:00
4:35 AM,48.6,41.9,78,30.18,10.0,NE,5.8,-,N/A,,Scattered Clouds,40,2012-09-27 09:35:00
4:55 AM,47.8,41.5,79,30.18,10.0,NE,4.6,-,N/A,,Clear,40,2012-09-27 09:55:00
5:15 AM,47.5,41.4,79,30.19,10.0,NE,5.8,-,N/A,,Clear,40,2012-09-27 10:15:00
5:35 AM,47.3,41.2,79,30.19,10.0,Calm,Calm,-,N/A,,Clear,0,2012-09-27 10:35:00
5:55 AM,46.6,41.0,81,30.19,10.0,NNE,4.6,-,N/A,,Clear,30,2012-09-27 10:55:00
6:15 AM,46.4,40.6,80,30.19,10.0,NNE,5.8,-,N/A,,Clear,30,2012-09-27 11:15:00
6:35 AM,46.0,41.0,83,30.20,10.0,NNE,5.8,-,N/A,,Clear,20,2012-09-27 11:35:00
6:55 AM,45.9,40.5,81,30.21,10.0,North,5.8,-,N/A,,Clear,10,2012-09-27 11:55:00
7:15 AM,45.7,40.8,83,30.21,10.0,NNE,5.8,-,N/A,,Clear,20,2012-09-27 12:15:00
7:35 AM,45.9,41.0,83,30.21,10.0,NNE,5.8,-,N/A,,Clear,30,2012-09-27 12:35:00
7:55 AM,47.3,41.4,80,30.21,10.0,North,6.9,-,N/A,,Clear,10,2012-09-27 12:55:00
8:15 AM,49.1,42.3,77,30.22,10.0,NNE,8.1,-,N/A,,Clear,20,2012-09-27 13:15:00
8:35 AM,51.6,44.4,76,30.23,10.0,NNE,4.6,-,N/A,,Clear,20,2012-09-27 13:35:00
8:55 AM,54.9,45.5,71,30.23,10.0,NE,6.9,-,N/A,,Clear,40,2012-09-27 13:55:00
9:15 AM,57.6,46.0,65,30.23,10.0,NE,10.4,-,N/A,,Clear,50,2012-09-27 14:15:00
9:35 AM,59.2,45.5,60,30.22,10.0,NE,12.7,-,N/A,,Clear,50,2012-09-27 14:35:00
9:55 AM,60.1,43.9,55,30.23,10.0,ENE,12.7,-,N/A,,Clear,60,2012-09-27 14:55:00
10:15 AM,60.1,44.6,57,30.22,10.0,NE,10.4,-,N/A,,Clear,40,2012-09-27 15:15:00
10:35 AM,60.8,43.5,53,30.23,10.0,NNE,9.2,-,N/A,,Clear,30,2012-09-27 15:35:00
10:55 AM,61.2,43.5,52,30.22,10.0,NE,5.8,9.2,N/A,,Clear,40,2012-09-27 15:55:00
11:15 AM,61.7,41.2,47,30.21,10.0,NE,6.9,-,N/A,,Clear,40,2012-09-27 16:15:00
11:35 AM,62.8,42.3,47,30.21,10.0,NNE,6.9,16.1,N/A,,Clear,20,2012-09-27 16:35:00
11:55 AM,63.3,42.8,47,30.20,10.0,NNW,6.9,-,N/A,,Clear,340,2012-09-27 16:55:00
12:15 PM,63.5,40.3,43,30.20,10.0,NW,4.6,-,N/A,,Clear,310,2012-09-27 17:15:00
12:35 PM,64.0,39.9,41,30.20,10.0,NNW,6.9,-,N/A,,Clear,330,2012-09-27 17:35:00
12:55 PM,64.4,40.6,42,30.20,10.0,NNE,5.8,-,N/A,,Clear,20,2012-09-27 17:55:00
1:15 PM,64.8,40.5,41,30.19,10.0,NNE,8.1,-,N/A,,Clear,30,2012-09-27 18:15:00
1:35 PM,65.3,41.5,42,30.18,10.0,NNE,8.1,-,N/A,,Clear,20,2012-09-27 18:35:00
1:55 PM,65.5,41.4,41,30.17,10.0,North,5.8,-,N/A,,Clear,360,2012-09-27 18:55:00
2:15 PM,66.6,41.2,40,30.17,10.0,North,6.9,-,N/A,,Clear,350,2012-09-27 19:15:00
2:35 PM,67.3,42.1,40,30.16,10.0,NW,10.4,-,N/A,,Clear,320,2012-09-27 19:35:00
2:55 PM,67.1,41.5,39,30.15,10.0,North,10.4,-,N/A,,Clear,10,2012-09-27 19:55:00
3:15 PM,67.3,41.7,39,30.14,10.0,North,10.4,-,N/A,,Clear,10,2012-09-27 20:15:00
3:35 PM,67.6,43.5,42,30.14,10.0,NNW,8.1,-,N/A,,Clear,340,2012-09-27 20:35:00
3:55 PM,67.8,43.5,41,30.14,10.0,North,9.2,-,N/A,,Clear,10,2012-09-27 20:55:00
4:15 PM,67.6,42.8,41,30.13,10.0,NNE,10.4,-,N/A,,Clear,30,2012-09-27 21:15:00
4:35 PM,67.1,41.2,39,30.14,10.0,North,10.4,-,N/A,,Clear,360,2012-09-27 21:35:00
4:55 PM,66.9,43.7,43,30.14,10.0,North,11.5,16.1,N/A,,Clear,360,2012-09-27 21:55:00
5:15 PM,66.2,42.8,43,30.14,10.0,North,9.2,-,N/A,,Clear,360,2012-09-27 22:15:00
5:35 PM,65.8,43.2,44,30.15,10.0,North,8.1,-,N/A,,Clear,10,2012-09-27 22:35:00
5:55 PM,65.1,44.2,47,30.16,10.0,NNE,11.5,-,N/A,,Clear,20,2012-09-27 22:55:00
6:15 PM,63.5,44.2,49,30.16,10.0,NNE,8.1,-,N/A,,Clear,20,2012-09-27 23:15:00
6:35 PM,62.4,44.6,52,30.16,10.0,NNE,10.4,-,N/A,,Clear,30,2012-09-27 23:35:00
6:55 PM,60.1,44.6,57,30.16,10.0,NNE,8.1,-,N/A,,Clear,30,2012-09-27 23:55:00
7:15 PM,58.3,44.6,60,30.17,10.0,NE,8.1,-,N/A,,Clear,40,2012-09-28 00:15:00
7:35 PM,57.2,44.6,63,30.18,10.0,NE,8.1,-,N/A,,Clear,50,2012-09-28 00:35:00
7:55 PM,57.2,44.8,63,30.18,10.0,NE,9.2,-,N/A,,Clear,40,2012-09-28 00:55:00
8:15 PM,55.9,45.0,67,30.18,10.0,NE,9.2,-,N/A,,Clear,40,2012-09-28 01:15:00
8:35 PM,54.7,44.8,69,30.18,10.0,NE,9.2,-,N/A,,Clear,40,2012-09-28 01:35:00
8:55 PM,54.7,45.5,71,30.19,10.0,NE,9.2,-,N/A,,Clear,40,2012-09-28 01:55:00
9:15 PM,53.6,44.8,72,30.19,10.0,NNE,9.2,-,N/A,,Clear,30,2012-09-28 02:15:00
9:35 PM,53.6,45.1,73,30.18,10.0,NE,9.2,-,N/A,,Clear,40,2012-09-28 02:35:00
9:55 PM,53.6,45.5,74,30.19,10.0,NE,10.4,-,N/A,,Clear,40,2012-09-28 02:55:00
10:15 PM,53.1,45.5,75,30.19,10.0,NE,9.2,-,N/A,,Clear,40,2012-09-28 03:15:00
10:35 PM,52.3,45.5,78,30.19,10.0,NNE,6.9,-,N/A,,Clear,30,2012-09-28 03:35:00
10:55 PM,52.2,45.1,77,30.19,10.0,NNE,6.9,-,N/A,,Clear,30,2012-09-28 03:55:00
11:15 PM,51.8,45.1,78,30.19,10.0,NNE,5.8,-,N/A,,Clear,30,2012-09-28 04:15:00
11:35 PM,50.9,44.8,80,30.18,10.0,NNE,6.9,-,N/A,,Clear,30,2012-09-28 04:35:00
11:55 PM,50.0,44.4,81,30.18,10.0,NNE,5.8,-,N/A,,Clear,30,2012-09-28 04:55:00